This is the latest recevied weather packets stored in our database for station/object EA1IDU-11. If no packets are shown the sender has not sent any weather packets the latest 10 day(s).
| Time | Temp. | Humidity | Pressure | Rain* | Wind** | Luminosity | Snow |
|---|---|---|---|---|---|---|---|
| 1777624946 | 22.78° C | 58% | 1027.6 hPa | - | - | - | - |
| 1777624046 | 21.67° C | 59% | 1027.7 hPa | - | - | - | - |
| 1777623146 | 20.56° C | 61% | 1027.8 hPa | - | - | - | - |
| 1777622246 | 20° C | 61% | 1027.6 hPa | - | - | - | - |
| 1777621346 | 18.89° C | 62% | 1027.6 hPa | - | - | - | - |
| 1777620446 | 18.33° C | 63% | 1027.7 hPa | - | - | - | - |
| 1777619546 | 17.22° C | 62% | 1027.7 hPa | - | - | - | - |
| 1777618646 | 15.56° C | 62% | 1027.6 hPa | - | - | - | - |
| 1777617745 | 13.89° C | 62% | 1027.6 hPa | - | - | - | - |
| 1777616845 | 13.33° C | 61% | 1027.6 hPa | - | - | - | - |
| 1777615945 | 13.33° C | 61% | 1027.7 hPa | - | - | - | - |
| 1777615045 | 12.78° C | 60% | 1027.7 hPa | - | - | - | - |
| 1777614145 | 12.78° C | 60% | 1027.7 hPa | - | - | - | - |
| 1777613245 | 12.22° C | 60% | 1027.5 hPa | - | - | - | - |
| 1777612345 | 12.22° C | 60% | 1027.4 hPa | - | - | - | - |
| 1777611445 | 12.78° C | 59% | 1027.1 hPa | - | - | - | - |
| 1777610545 | 12.78° C | 59% | 1027.1 hPa | - | - | - | - |
| 1777609645 | 12.78° C | 59% | 1026.9 hPa | - | - | - | - |
| 1777608745 | 13.33° C | 59% | 1026.9 hPa | - | - | - | - |
| 1777607844 | 13.33° C | 59% | 1026.8 hPa | - | - | - | - |
| 1777606944 | 13.89° C | 59% | 1027 hPa | - | - | - | - |
| 1777606044 | 13.89° C | 59% | 1027 hPa | - | - | - | - |
| 1777605144 | 13.89° C | 59% | 1027 hPa | - | - | - | - |
| 1777604244 | 14.44° C | 58% | 1027.1 hPa | - | - | - | - |
| 1777603344 | 14.44° C | 59% | 1027 hPa | - | - | - | - |
* Rain since midnight (hover to see other rain measurements)
** Current wind speed in m/s (hover to see current wind gust speed)